Flag for U.S.A. Weather past 2 weeks in San Jose, California, U.S.A.

Now
63 °F

Scattered clouds.


Feels Like: 63 °F
Forecast: 44 / 58 °F
Wind: No wind

Location: San Jose International Airport

Current Time: Mar 1, 2015 at 4:16:58 PM

Latest Report: Mar 1, 2015 at 2:53 PM


Visibility: 10 mi

Pressure: 29.91 "Hg

Humidity: 37%

Dew point: 36 °F

Location of San JoseLocation

Historic Weather in San Jose — Graph

°F

San Jose temperature yesterday

Maximum temperature yesterday: 58 °F (at 12:53 PM)
Minimum temperature yesterday: 46 °F (at 11:53 PM)
Average temperature yesterday: 52 °F

Past Weeks' High & Low Weather Summary

 TemperatureHumidityPressure
High75 °F (Feb 15, 2:53 PM)94% (Feb 19, 4:03 AM)30.36 "Hg (Feb 19, 4:03 AM)
Low38 °F (Feb 24, 6:53 AM)17% (Feb 24, 1:53 PM)29.74 "Hg (Feb 28, 3:53 AM)
Average56 °F65%30.02 "Hg
* Reported Feb 14 2:53 PM — Mar 1 2:53 PM, San Jose, Weather by CustomWeather, © 2015

Note: Actual official high and low records may vary slightly from our data, if they occured in-between our weather recording intervals... More about our weather records

Advertising

San Jose weather history for previous 24 hours

 ConditionsComfort  
Time TempWeatherWind HumidityBarometerVisibility
2:53 PM
Sun, Mar 1
63 °FScattered clouds.No wind37%29.91 "Hg10 mi
1:53 PM63 °FPassing clouds.7 mph37%29.92 "Hg10 mi
12:53 PM61 °FPassing clouds.7 mph41%29.95 "Hg10 mi
11:53 AM60 °FPassing clouds.3 mph41%29.98 "Hg10 mi
10:53 AM57 °FPassing clouds.3 mph53%29.99 "Hg10 mi
9:53 AM54 °FPassing clouds.No wind67%29.99 "Hg10 mi
8:53 AM49 °FPassing clouds.3 mph80%29.99 "Hg10 mi
7:53 AM45 °FScattered clouds.No wind86%29.99 "Hg10 mi
6:53 AM41 °FScattered clouds.No wind89%29.97 "Hg10 mi
5:53 AM42 °FPassing clouds.No wind89%29.96 "Hg10 mi
4:53 AM42 °FClear.3 mph92%29.96 "Hg10 mi
3:53 AM42 °FClear.No wind92%29.95 "Hg10 mi
2:53 AM44 °FClear.No wind89%29.94 "Hg10 mi
1:53 AM44 °FClear.No wind93%29.94 "Hg10 mi
12:53 AM45 °FClear.No wind90%29.93 "Hg10 mi
11:53 PM
Sat, Feb 28
46 °FPassing clouds.No wind89%29.92 "Hg10 mi
10:53 PM48 °FPassing clouds.No wind86%29.91 "Hg10 mi
9:53 PM49 °FPassing clouds.No wind84%29.90 "Hg10 mi
8:53 PM49 °FPassing clouds.No wind84%29.88 "Hg10 mi
7:53 PM49 °FPassing clouds.3 mph86%29.87 "Hg10 mi
6:53 PM50 °FPartly cloudy.5 mph83%29.84 "Hg10 mi
5:53 PM51 °FBroken clouds.No wind74%29.83 "Hg10 mi
4:53 PM50 °FLight rain. Broken clouds.7 mph83%29.82 "Hg10 mi
Weather by CustomWeather, © 2015

See weather overviewHow to use our weather pages